Other Public Products
Issued by NWS Grand Forks, ND

Home | Current Version | Previous Version | Graphics & Text | Print | Product List | Glossary On
Versions: 1 2 3 4 5 6 7 8 9 10 11 12 13 14 15 16 17 18 19 20 21 22 23 24 25 26 27 28 29 30 31 32 33 34 35 36 37 38 39 40 41 42 43 44 45 46 47 48 49 50
654
FPUS83 KFGF 230910
OPUFGF
PRAIRIE TO PINES WEATHER ROUNDUP
NATIONAL WEATHER SERVICE EASTERN NORTH DAKOTA/GRAND FORKS ND
400 AM CDT THU MAR 23 2017

 **SATELLITE DATA USED TO AUGMENT SKY COVER AT AUTOMATED STATIONS**
 *****  WEATHER ACROSS EASTERN NORTH DAKOTA  *****

CITY           SKY/WX    TMP DP  RH WIND       PRES   REMARKS
GRAND FORKS    FAIR      34  21  59 S13       29.93F WCI  25
GRAND FORKS AF FAIR      32  25  73 S17       29.93F WCI  21
GRAND CITY NWS NOT AVBL
BUXTON         NOT AVBL
DEVILS LAKE    FAIR      30  26  85 S15       29.86F WCI  19
FARGO          FAIR      36  25  64 S23G36    29.95F
WAHPETON ARPT  FAIR      32  25  74 SE15      29.99F WCI  22
$$

 *****  WEATHER ACROSS CENTRAL AND WESTERN NORTH DAKOTA  *****

CITY           SKY/WX    TMP DP  RH WIND       PRES   REMARKS
JAMESTOWN      FAIR      29  25  85 S8        29.86F WCI  21
BISMARCK       FAIR      32  27  81 E8        29.81F WCI  25
MINOT          FAIR      33  28  81 S9        29.77F
MINOT AFB      FAIR      29  27  91 SE6       29.76F WCI  23
GARRISON         N/A     30  27  88 SE5       29.78F
WILLISTON      FAIR      30  28  92 CALM      29.76F
DICKINSON      CLOUDY    34  30  85 SE3       29.74S
HETTINGER      CLOUDY    36  30  79 VRB3      29.76F
$$

 *****  OTHER OBSERVATIONS NORTHEAST NORTH DAKOTA  *****

CITY           SKY/WX    TMP DP  RH WIND       PRES   REMARKS
WALHALLA       NOT AVBL
LANGDON        NOT AVBL
CAVALIER       NOT AVBL
GRAFTON        FAIR      30  27  86 S12       29.95F WCI  21
CANDO          NOT AVBL
FORT TOTTEN    NOT AVBL
ROLLA          FAIR      23  23 100 S9        29.82F WCI  13
RUGBY            N/A     28  27  93 S9        29.82S WCI  20
 ***** THE ABOVE OBSERVATIONS ARE NON NWS ARE NOT QUALITY
        CONTROLLED AND MAY MIS-REPORT RAIN FOR SNOW...
$$

 *****  OTHER OBSERVATIONS SOUTHEAST NORTH DAKOTA *****

CITY           SKY/WX    TMP DP  RH WIND       PRES   REMARKS
COOPERSTOWN    FAIR      30  27  86 SE14      29.90F WCI  20
VALLEY CITY    FAIR      28  28 100 S13       29.90F WCI  18
OAKES          NOT AVBL
GWINNER        SUNNY     30  27  86 MISG      29.91F
SHEYENNE NWR     N/A     33  25  73 S14       29.95S WCI  23
BUFFALO        NOT AVBL
WYNDMERE       NOT AVBL
 ***** THE ABOVE OBSERVATIONS ARE NON NWS ARE NOT QUALITY
       CONTROLLED AND MAY MIS-REPORT RAIN FOR SNOW...
$$

  *****  WEATHER ACROSS NORTHERN MINNESOTA  *****

CITY           SKY/WX    TMP DP  RH WIND       PRES   REMARKS
FLAG ISLAND    CLOUDY    28  23  80 S17       30.00F WCI  16
WARROAD        CLOUDY    34  21  60 S12       29.99F
ROSEAU         CLOUDY    34  23  64 S12       29.98F
HALLOCK        FAIR      32  27  80 S16       29.93F WCI  21
THF RVR FALLS    N/A    N/A N/A N/A MISG        N/A
HALSTAD          N/A     34  25  68 S18         N/A  WCI  23
FOSSTON        FAIR      32  19  59 S14       29.99F WCI  22
BAUDETTE       CLOUDY    32  18  56 S13       30.02F WCI  22
WASKISH        CLOUDY    34  19  55 S10       30.04F
CROOKSTON      FAIR      34  25  69 S16       29.97F WCI  23
$$
  *****  WEATHER ACROSS CENTRAL AND WEST MINNESOTA  *****

CITY           SKY/WX    TMP DP  RH WIND       PRES   REMARKS
BEMIDJI        CLOUDY    34  18  53 S15       30.03F WCI  24
PARK RAPIDS    CLOUDY    35  18  49 S17       30.04F WCI  25
WADENA         CLOUDY    34  21  60 SE14G22   30.05F WCI  24
DETROIT LAKES  FAIR      34  23  64 SE13G18   30.02F WCI  25
MOORHEAD       FAIR      36  25  64 S23G29    29.98F
FERGUS FALLS   FAIR      36  23  60 S20G28    30.04F
ELBOW LAKE     CLOUDY    35  23  61 SE25G32   30.01F WCI  23
MORRIS MN      FAIR      36  25  64 SE18      30.02F
STAPLES        CLOUDY    34  18  51 S12G22    30.08F
WHEATON        FAIR      34  25  69 SE20      30.00F WCI  22
$$
  *****  WEATHER ELSEWHERE ACROSS MINNESOTA  *****

CITY           SKY/WX    TMP DP  RH WIND       PRES   REMARKS
DULUTH         FLURRIES  30  20  66 SE13      30.20F WCI  20
INTRNTL FALLS  CLOUDY    31  18  58 S6        30.09F
ELY            CLOUDY    27  19  74 SE12      30.17F WCI  16
CLOQUET        FLURRIES  30  19  64 S15G21    30.22S WCI  19
BRAINERD       CLOUDY    34  18  52 S15       30.12F WCI  24
HIBBING        CLOUDY    29  16  58 SE13G23   30.14F WCI  19
ALEXANDRIA     CLOUDY    36  22  56 S17       30.06F
SAINT CLOUD    CLOUDY    36  21  54 SE14      30.14F
MINNEAPOLIS    CLOUDY    37  20  50 SE18      30.22F
$$

  *****  WEATHER ACROSS SOUTH DAKOTA  *****

CITY           SKY/WX    TMP DP  RH WIND       PRES   REMARKS
SIOUX FALLS    CLOUDY    41  26  55 S14       30.01F
BROOKINGS      CLOUDY    38  26  62 S18G26    29.98F
WATERTOWN      FAIR      36  26  67 S17       29.94F
HURON          FAIR      40  29  64 SE16G24   29.91F
SISSETON         N/A     33  27  78 S13       29.95F WCI  24
ABERDEEN       FAIR      37  26  64 S17G26    29.88F
MITCHELL       FAIR      41  29  62 SE17      29.93F
PIERRE         FAIR      42  30  62 SE12      29.78F
MOBRIDGE       FAIR      43  30  60 SE13      29.74F
RAPID CITY     FAIR      48  38  68 S6        29.71S
$$

  *****  SOME WEATHER IN NEARBY STATES *****

CITY           SKY/WX    TMP DP  RH WIND       PRES   REMARKS
GLASGOW MT     FAIR      41  34  76 SE7       29.75S
GREAT FALLS MT FAIR      30  23  75 SW8       29.81R WCI  22
CHEYENNE WY    FAIR      43  36  76 NW5       29.74F
SCOTTSBLUFF NE FAIR      45  35  68 E13       29.73F
OMAHA NE       CLOUDY    46  21  37 SE16      30.08F
DES MOINES IA  CLOUDY    42  15  33 SE10      30.20S
DAVENPORT IA   CLOUDY    32  22  66 SE14      30.34F WCI  22
CHICAGO IL     MOCLDY    31  19  61 SE8       30.42F WCI  23
EAU CLAIRE WI  LGT SNOW  33  18  53 SE14      30.29F WCI  23
LA CROSSE WI   CLOUDY    37  22  54 SE13      30.31F
$$

  *****  SOME NATIONAL WEATHER *****

CITY           SKY/WX    TMP DP  RH WIND       PRES   REMARKS
LA GUARDIA NY  FAIR      26   7  44 NW12      30.50R WCI  16
RALEIGH NC     FAIR      34  13  41 NE8       30.48R
ATLANTA GA     MOCLDY    53  32  44 E13       30.31R
NEW ORLEANS LA FAIR      65  64  97 NW3       30.15R
OKLAHOMA CITY  FAIR      61  57  87 S15G23    29.98F
ALBUQUERQUE NM FAIR      58  16  19 SE15G21   29.88F
SALT LAKE CITY HVY RAIN  45  42  89 NW12      29.72S
LOS ANGELES CA FAIR      55  49  80 W9        30.01R
BOISE ID       FAIR      41  35  79 W12       29.92R
SEATTLE WA     CLOUDY    43  38  82 S9        30.08S
$$

*** WEATHER ACROSS MANITOBA...SASKATCHEWAN AND ONTARIO ***
                ***ONTARIO***

CITY           SKY/WX    TMP DP  RH WIND       PRES   REMARKS
GERALDTON      MOCLDY     3  -4  72 VRB2      30.29F
THUNDER BAY    CLOUDY    25  19  80 CALM      30.30F
SIOUX LOOKOUT  FLURRIES  27  19  74 S9G20     30.08F WCI  17
TORONTO        CLEAR     18   9  68 W3        30.55R
BIG TROUT LK   CLOUDY    19   5  53 S10       30.05F WCI   8
PICKLE LAKE    NOT AVBL
DRYDEN         FLURRIES  27  23  86 S14G23    30.06F WCI  15
KENORA         CLOUDY    28  21  74 S15G21    29.99F WCI  17
$$
                *** MANITOBA***

CITY           SKY/WX    TMP DP  RH WIND       PRES   REMARKS
BRANDON        PTCLDY    25  23  93 SE2       29.78F
DAUPHIN        CLEAR     34  27  75 SW9       29.71F
ISLAND LAKE    FLURRIES  25  21  86 SE10G17   29.85F WCI  15
PILOT MOUND      N/A     25  23  93 S14         N/A  WCI  13
THE PAS        FRZ DRZL  27  23  86 SE17      29.56F FOG     WCI  14
THOMPSON       NOT AVBL
WINNIPEG       CLOUDY    32  25  74 S22G30    29.90F WCI  19
LYNN LAKE      FLURRIES  18  18 100 NE6       29.66F WCI   9
CHURCHILL      MOCLDY    10   3  72 S8        29.87F WCI  -1
GILLAM         CLEAR     21  16  79 S9G20     29.85F WCI  11
$$
                ***SASKATCHEWAN***

CITY           SKY/WX    TMP DP  RH WIND       PRES   REMARKS
ESTEVAN        PTCLDY    32  30  93 SW9       29.74S WCI  24
KINDERSLEY     MOCLDY    27  25  93 N6        29.72S WCI  20
LLOYDMINSTER   FOG       21  21 100 NW8       29.72S VSB 3/8 WCI  12
PRINCE ALBERT  FLURRIES  25  19  80 NW13G20   29.67R WCI  13
REGINA         CLEAR     28  28 100 W8        29.72R WCI  20
YORKTON        CLEAR     28  27  93 S10       29.67R WC



USA.gov is the U.S. government's official web portal to all federal, state and local government web resources and services.